User: anonymous   Login
Location: Stonelick Lake State Park
(39.2170°N, 84.0850°W)
Time: 16:48:16
(UTC-04:00)
Language:

Abrixas rocket - Orbit

View from above orbital plane
View from above orbital plane
View from above satellite
View from above satellite

Ground track
Ground track

The orbit data is extracted from the following two-line orbital elements,

1 25723U 99022C   15088.50846150  .00020529  00000-0  53695-3 0  9991
2 25723 048.4212 125.4307 0012688 120.3672 028.8880 15.38539338880963
Epoch (UTC): 29 March 2015 12:12:11
Eccentricity: 0.0012688
inclination: 48.4212°
perigee height: 442 km
apogee height: 459 km
right ascension of ascending node: 125.4307°
argument of perigee: 120.3672°
revolutions per day: 15.38539338
mean anomaly at epoch: 28.8880°
orbit number at epoch: 88096

The dashed part of the orbit path shows where the satellite is in the earth's shadow,  

DLR